Location: ????????
(55.6189°N, 38.3031°E)
Time: 05:35:53
(UTC+00:00)

Cosmos 372 Rocket - Pass Details

Date: 15 November 2019
Orbit: 739 x 767 km, 74.1° (Epoch: 13 December)

Event Time Altitude Azimuth Distance (km) Brightness Sun altitude
Rises 04:14:38 0° 214° (SW) 3,196 7.1 -6.6°
Reaches altitude 10° 04:17:01 10° 217° (SW) 2,271 6.3 -6.3°
Maximum altitude 04:22:09 69° 301° (WNW) 803 3.9 -5.6°
Drops below altitude 10° 04:27:17 10° 25° (NNE) 2,269 6.5 -4.9°
Sets 04:29:39 0° 28° (NNE) 3,194 7.2 -4.6°
